Wind_Speed
13 16 15 14 11 10 11 12 12 11 11 11 11 12 12 11 10 9 8 7 5 5 5 5 5 5 5 4 5 6 7 7 6 5 4 4 4 4 2 2 2 1 5
18 17 18 16 14 12 10 11 12 13 11 11 11 10 10 10 9 8 7 7 6 6 6 6 6 6 6 7 7 7 8 8 7 6 5 4 5 4 4 3 3 7 5
19 15 17 16 15 15 14 13 10 11 12 12 12 11 10 9 9 8 7 6 5 5 6 7 7 8 8 9 9 9 9 9 8 7 6 2 5 8 5 5 4 5 5
21 18 15 17 17 17 15 12 10 8 8 8 8 8 8 8 7 7 7 7 7 8 8 8 9 9 9 10 10 10 10 11 9 8 5 7 6 9 6 7 6 6 6
19 15 15 16 14 12 10 10 9 8 8 7 6 6 6 6 6 6 7 8 9 11 11 10 11 11 12 12 12 11 11 12 12 10 8 9 7 11 9 8 9 8 8
17 14 13 12 13 12 13 10 11 9 8 8 7 5 5 5 5 6 8 9 10 12 13 14 15 16 15 16 15 15 14 14 14 9 11 12 11 13 11 10 10 10 9
17 14 14 14 14 12 11 11 10 8 8 6 4 4 4 4 5 7 9 10 11 13 14 15 15 17 17 17 17 17 17 17 16 12 13 12 12 15 13 14 12 13 12
15 14 13 17 13 12 11 9 7 7 7 5 4 4 4 4 4 6 8 9 11 13 14 16 17 17 17 18 19 19 20 20 19 14 15 15 17 16 16 16 17 15 16
15 13 12 15 15 12 10 9 9 7 5 3 2 2 3 4 6 7 9 10 11 13 14 16 17 19 20 20 20 21 20 22 23 17 18 16 20 20 19 19 19 20 18
14 13 12 11 12 12 12 9 7 5 3 3 3 3 5 6 8 9 11 12 13 15 17 18 19 20 21 22 23 23 21 21 20 22 21 17 25 24 21 22 22 22 22
13 12 12 9 9 8 7 6 5 5 5 4 4 4 6 7 9 11 12 14 16 17 18 20 21 21 22 24 25 26 25 20 18 18 21 26 28 26 24 24 25 25 25
13 11 9 9 7 7 6 5 5 4 3 3 4 5 7 9 12 14 16 17 19 19 21 21 22 22 22 24 25 25 24 27 28 24 19 26 27 27 27 27 28 28 27
14 12 11 9 8 7 6 4 4 3 3 4 6 7 9 12 14 16 17 19 19 20 20 21 22 22 22 22 23 25 27 26 27 25 22 31 30 29 28 28 29 29 30
14 12 10 9 7 5 4 3 3 3 4 5 7 9 11 12 14 15 16 18 19 19 20 20 21 22 23 23 24 25 25 26 26 27 28 33 34 32 31 31 31 31 30
13 12 10 7 6 4 4 3 2 3 5 7 8 9 10 11 12 13 14 15 16 18 19 20 20 21 21 22 23 24 26 27 27 28 30 34 34 34 34 35 35 33 32
13 11 9 6 4 2 1 2 3 4 6 7 8 9 9 9 10 11 13 14 16 18 19 20 21 22 22 23 23 24 25 25 26 28 28 29 34 35 35 37 38 39 37
12 9 6 3 2 1 2 2 2 3 3 4 4 5 6 8 9 10 12 14 15 17 20 21 22 23 21 21 21 23 23 23 22 23 25 27 27 29 34 37 38 40 41
12 10 6 3 1 1 1 1 1 1 1 2 3 5 7 8 9 10 11 13 15 17 19 21 22 23 22 22 24 22 21 19 19 20 18 20 21 21 23 29 35 38 41
12 9 5 3 2 1 1 1 0 1 3 4 5 6 6 7 8 9 11 14 16 17 18 20 22 24 22 24 26 21 18 16 13 11 11 13 13 14 14 17 22 28 32
13 9 6 4 2 2 1 1 2 1 2 3 2 3 4 6 7 9 11 13 15 16 17 19 22 23 20 26 25 19 14 10 6 9 9 8 7 9 8 12 12 9 14
13 9 7 5 2 1 2 2 2 3 2 1 1 3 4 6 8 9 11 13 14 15 17 19 21 22 20 27 22 22 10 8 5 14 10 12 11 9 9 12 12 10 8
13 11 9 7 5 5 4 5 5 4 3 2 2 3 4 6 8 10 12 13 13 13 15 16 18 21 19 23 22 12 12 4 13 7 10 11 15 15 15 13 11 13 10
14 12 10 7 6 7 6 7 6 3 2 2 4 5 6 7 8 9 10 10 11 12 13 15 16 18 18 19 18 16 9 7 22 7 12 14 14 15 15 13 7 8 15
16 14 10 7 6 5 5 5 4 3 3 3 2 3 5 6 7 7 8 10 12 12 12 13 15 15 18 17 14 14 8 10 7 13 14 11 15 14 11 8 9 11 13
17 15 12 9 7 6 6 7 6 5 5 2 1 2 4 5 6 8 9 9 9 10 11 12 13 15 15 16 15 15 8 8 9 14 18 20 16 15 14 12 9 8 9
16 15 12 10 10 9 9 8 7 6 4 2 1 2 3 4 6 7 8 9 9 10 10 11 12 13 15 15 16 14 12 9 12 10 15 19 17 10 11 18 17 15 12
Wind_Direction
165 165 162 160 147 149 151 152 156 159 158 154 152 157 163 168 171 176 181 185 197 209 222 228 231 236 247 261 273 282 285 286 291 296 308 310 300 287 255 245 230 47 230
166 168 166 160 155 146 154 159 160 157 159 157 156 162 168 173 177 184 188 192 202 217 230 238 244 250 255 262 266 274 278 280 285 291 297 295 301 279 264 237 201 207 234
177 167 173 165 164 160 159 161 160 167 166 165 167 170 173 179 186 189 197 206 218 242 253 254 260 263 264 267 270 272 274 276 280 283 285 283 264 276 258 243 231 228 225
184 184 168 172 177 178 173 170 170 179 182 182 178 176 185 187 196 202 212 223 229 235 243 252 259 263 266 265 266 266 268 271 271 272 284 264 259 266 251 246 245 234 235
182 181 179 180 186 184 164 179 189 191 194 187 187 190 196 204 217 237 242 251 248 250 255 264 267 264 265 270 264 260 258 262 263 266 266 259 250 264 257 257 248 249 252
186 183 186 172 182 176 177 179 194 198 204 200 191 194 206 225 241 254 260 263 265 265 269 271 272 273 273 271 272 269 264 261 259 269 263 268 257 246 258 263 248 246 254
177 167 175 177 184 182 189 190 179 191 202 200 197 212 228 248 264 270 272 273 275 278 280 279 280 282 279 277 276 273 269 267 265 263 262 262 261 255 253 250 252 247 250
180 179 182 193 191 191 192 190 183 189 199 198 209 219 228 253 269 277 284 288 291 292 291 290 289 284 282 282 278 277 275 272 268 271 264 260 259 253 253 252 250 250 247
178 193 198 184 182 185 186 182 188 195 200 210 235 267 304 312 309 304 300 297 296 295 293 292 292 291 289 286 284 281 275 272 270 263 257 258 267 256 249 250 250 249 248
183 185 194 182 165 174 182 187 194 202 211 227 255 291 308 307 303 300 298 304 301 299 297 295 291 287 285 286 285 281 279 276 280 266 259 252 247 254 247 249 249 249 250
185 185 193 185 172 172 181 190 212 223 235 248 270 297 305 305 303 303 304 303 302 301 299 297 294 291 288 281 279 280 281 279 271 273 270 264 260 258 254 251 251 250 249
186 186 192 177 181 167 180 192 204 220 238 266 289 299 302 302 305 306 307 308 305 304 302 301 299 297 291 287 286 280 273 272 275 274 269 269 266 265 257 253 250 250 249
190 194 190 183 184 178 191 198 214 236 266 290 300 301 302 306 310 312 312 313 313 312 308 306 304 301 297 290 283 283 279 274 272 270 266 264 263 261 260 257 254 251 249
183 186 181 182 186 193 202 222 243 260 281 295 304 315 321 321 322 322 324 323 322 323 323 321 318 314 307 301 295 287 280 277 272 268 265 267 268 265 260 257 254 253 249
175 175 178 179 183 193 206 224 261 300 319 322 324 324 326 328 331 332 332 333 334 334 332 330 327 321 315 309 303 296 290 282 275 270 267 268 267 262 261 260 255 252 250
166 172 169 168 172 185 286 317 326 329 330 333 335 335 338 344 349 351 351 351 351 349 347 345 340 336 329 322 315 307 299 290 283 279 273 269 266 263 258 257 258 256 250
163 169 166 168 189 246 279 291 300 303 307 319 334 349 0 6 6 6 5 3 3 3 1 357 352 348 340 334 326 319 311 301 291 282 279 276 273 271 263 256 254 256 255
161 169 173 169 177 199 268 272 275 287 353 35 37 33 27 22 18 15 11 9 7 8 7 4 1 357 350 343 338 329 316 307 300 297 294 285 279 275 274 271 257 252 253
170 175 173 171 182 249 260 256 32 47 54 60 50 35 24 15 8 7 5 3 3 3 3 5 3 359 355 349 344 337 324 312 314 316 316 307 302 296 290 291 289 266 257
180 181 182 188 218 253 304 10 30 69 92 82 56 25 8 356 356 357 353 354 357 358 360 1 2 3 358 353 353 343 336 336 329 340 332 342 346 334 319 301 292 283 284
182 182 187 203 203 185 159 150 164 155 157 170 8 358 351 350 349 348 349 351 351 351 353 357 1 3 2 2 358 357 3 328 356 334 329 315 321 314 317 335 328 314 301
179 188 190 194 194 196 195 196 184 190 214 251 298 320 342 347 346 347 348 345 345 348 352 359 5 9 12 6 3 356 356 355 321 349 339 331 329 325 318 308 328 314 277
183 191 196 198 193 192 187 190 198 221 246 336 333 342 351 351 348 347 345 345 350 355 357 4 9 13 15 15 16 17 353 336 336 332 343 335 334 338 336 331 292 297 283
188 195 191 191 193 195 199 213 218 201 217 266 296 344 352 352 353 357 0 4 4 3 4 8 12 13 17 15 21 13 347 315 324 322 346 348 359 343 321 313 297 294 290
191 189 189 188 191 193 205 210 215 221 236 235 302 345 4 6 11 16 10 6 6 10 10 14 15 18 17 21 15 9 357 353 319 314 314 332 351 346 11 9 349 334 334
188 191 192 194 194 196 205 208 209 198 189 180 208 52 38 24 17 19 21 16 17 18 17 19 20 17 21 25 22 18 10 8 330 329 317 329 330 336 331 335 354 358 354
Height
1523 1524 1526 1528 1530 1532 1534 1535 1536 1537 1538 1537 1538 1539 1539 1540 1540 1541 1541 1541 1542 1542 1542 1542 1541 1540 1540 1540 1540 1540 1539 1538 1538 1537 1536 1536 1535 1535 1534 1534 1534 1537 1534
1522 1523 1525 1527 1529 1531 1533 1535 1537 1537 1538 1537 1537 1538 1539 1540 1541 1541 1541 1541 1542 1542 1542 1542 1542 1541 1540 1540 1539 1539 1538 1538 1537 1536 1535 1535 1535 1535 1534 1534 1534 1534 1534
1521 1523 1524 1527 1529 1531 1533 1535 1536 1537 1538 1537 1537 1538 1539 1540 1541 1541 1541 1541 1541 1542 1543 1543 1542 1541 1539 1539 1538 1537 1537 1536 1536 1536 1535 1537 1538 1534 1533 1533 1533 1533 1533
1520 1522 1525 1526 1528 1529 1532 1534 1536 1538 1537 1537 1537 1537 1538 1539 1540 1540 1540 1540 1540 1540 1540 1540 1540 1539 1538 1537 1537 1535 1535 1535 1534 1534 1535 1536 1535 1533 1532 1532 1532 1533 1532
1520 1523 1524 1526 1528 1531 1533 1533 1535 1536 1538 1537 1537 1536 1537 1537 1538 1538 1539 1540 1540 1540 1540 1539 1539 1538 1536 1536 1535 1534 1533 1533 1533 1533 1535 1534 1533 1533 1531 1531 1531 1531 1531
1522 1524 1525 1527 1527 1530 1531 1532 1527 1533 1537 1536 1536 1536 1536 1536 1536 1537 1537 1538 1537 1538 1538 1538 1537 1536 1535 1534 1533 1532 1531 1530 1531 1533 1534 1533 1530 1529 1529 1529 1530 1529 1530
1521 1523 1524 1525 1527 1529 1530 1531 1529 1533 1536 1535 1535 1535 1536 1536 1535 1536 1537 1537 1536 1536 1535 1535 1534 1534 1533 1532 1531 1530 1529 1528 1529 1532 1531 1530 1528 1526 1526 1526 1527 1528 1528
1520 1521 1523 1524 1527 1529 1530 1531 1531 1534 1535 1533 1534 1534 1534 1534 1534 1534 1535 1535 1535 1534 1534 1533 1532 1531 1530 1529 1528 1527 1527 1526 1526 1529 1529 1528 1526 1524 1523 1523 1524 1525 1526
1519 1520 1522 1523 1525 1528 1528 1530 1532 1533 1533 1533 1533 1534 1533 1533 1533 1533 1533 1533 1532 1531 1531 1531 1529 1528 1527 1526 1525 1524 1523 1523 1522 1524 1524 1524 1522 1521 1520 1520 1521 1521 1523
1519 1520 1521 1522 1523 1525 1527 1529 1531 1531 1532 1532 1532 1532 1531 1531 1531 1531 1531 1530 1530 1529 1528 1527 1526 1525 1523 1522 1521 1521 1520 1519 1518 1517 1516 1517 1516 1516 1516 1516 1517 1517 1518
1519 1521 1521 1523 1524 1525 1527 1528 1529 1530 1530 1530 1530 1530 1530 1530 1530 1530 1529 1527 1526 1525 1524 1523 1522 1520 1519 1516 1516 1516 1516 1515 1514 1513 1511 1510 1511 1511 1511 1512 1512 1513 1514
1519 1520 1521 1522 1524 1525 1526 1527 1528 1528 1528 1528 1528 1528 1528 1529 1528 1527 1526 1525 1523 1521 1520 1519 1517 1515 1513 1512 1511 1509 1509 1508 1508 1507 1508 1504 1505 1506 1506 1506 1507 1508 1509
1518 1520 1521 1523 1525 1526 1526 1526 1526 1527 1527 1526 1526 1526 1526 1526 1525 1524 1522 1521 1519 1518 1517 1515 1512 1510 1508 1506 1504 1504 1503 1501 1501 1501 1501 1497 1498 1499 1500 1500 1501 1503 1504
1516 1518 1521 1522 1524 1525 1525 1525 1525 1525 1525 1525 1524 1524 1524 1523 1522 1521 1519 1518 1516 1514 1513 1510 1508 1506 1504 1502 1500 1497 1496 1496 1493 1492 1492 1491 1491 1493 1493 1493 1494 1496 1497
1516 1518 1520 1522 1522 1523 1524 1524 1524 1523 1523 1523 1522 1522 1522 1521 1519 1519 1517 1516 1514 1511 1509 1506 1504 1501 1499 1496 1493 1492 1490 1488 1487 1485 1483 1482 1483 1484 1485 1486 1487 1488 1490
1516 1518 1519 1520 1520 1521 1521 1521 1522 1522 1522 1521 1521 1521 1520 1519 1518 1517 1516 1515 1512 1510 1507 1504 1501 1498 1495 1492 1488 1486 1484 1481 1479 1478 1476 1474 1474 1475 1476 1477 1479 1480 1481
1515 1517 1518 1519 1520 1521 1522 1522 1522 1521 1521 1521 1520 1519 1519 1517 1517 1516 1515 1513 1511 1508 1506 1502 1499 1495 1492 1488 1484 1481 1478 1475 1473 1471 1470 1468 1466 1466 1467 1468 1470 1472 1473
1514 1516 1517 1518 1519 1520 1520 1520 1520 1520 1520 1519 1518 1518 1517 1517 1516 1515 1514 1512 1510 1507 1504 1501 1497 1494 1490 1485 1480 1477 1474 1470 1468 1465 1465 1464 1462 1460 1461 1459 1460 1462 1464
1512 1515 1516 1517 1518 1519 1519 1519 1519 1519 1519 1518 1518 1518 1517 1517 1516 1514 1513 1511 1508 1506 1503 1499 1496 1492 1488 1484 1478 1474 1470 1467 1466 1466 1464 1462 1461 1457 1458 1458 1454 1454 1456
1511 1513 1514 1515 1516 1517 1518 1519 1519 1519 1519 1518 1518 1517 1517 1516 1515 1513 1512 1510 1508 1506 1503 1499 1495 1491 1487 1481 1475 1472 1468 1468 1466 1465 1462 1460 1459 1460 1456 1453 1452 1453 1451
1509 1511 1513 1515 1516 1518 1519 1519 1520 1520 1520 1519 1517 1516 1516 1515 1514 1512 1510 1508 1506 1504 1502 1498 1495 1491 1487 1480 1476 1470 1469 1468 1465 1463 1463 1459 1457 1456 1454 1452 1452 1449 1452
1506 1509 1510 1511 1513 1516 1518 1518 1519 1519 1519 1519 1517 1516 1515 1514 1512 1511 1509 1507 1505 1503 1502 1499 1496 1491 1487 1482 1476 1473 1468 1468 1465 1463 1462 1460 1459 1455 1452 1451 1451 1450 1447
1505 1507 1509 1511 1512 1513 1515 1517 1518 1519 1518 1518 1517 1516 1514 1512 1511 1509 1508 1506 1504 1502 1499 1497 1495 1492 1487 1484 1480 1477 1474 1473 1466 1464 1461 1460 1458 1456 1454 1450 1447 1443 1444
1502 1504 1507 1508 1511 1512 1514 1515 1516 1518 1520 1517 1516 1514 1512 1512 1511 1508 1506 1503 1501 1500 1498 1496 1493 1492 1487 1484 1483 1479 1479 1477 1472 1463 1460 1460 1457 1452 1450 1447 1445 1443 1441
1499 1501 1503 1505 1508 1510 1511 1512 1514 1515 1516 1515 1514 1513 1511 1511 1509 1505 1503 1502 1501 1499 1498 1496 1494 1491 1488 1485 1482 1480 1479 1475 1473 1470 1462 1456 1455 1454 1450 1447 1445 1442 1439
1497 1499 1501 1503 1505 1507 1508 1509 1511 1512 1514 1513 1514 1512 1509 1509 1509 1505 1502 1503 1501 1499 1498 1496 1495 1493 1488 1485 1483 1481 1478 1475 1473 1471 1466 1461 1456 1454 1451 1449 1446 1441 1438